Location: Klein M�hlingen
(51.9472°N, 11.7453°E)
Time: 07:30:31
(UTC+00:00)

Cosmos 2181 Rocket - Pass Details

Date: 09 April 2020
Orbit: 952 x 1014 km, 82.9° (Epoch: 02 June)

Event Time Altitude Azimuth Distance (km) Brightness Sun altitude
Rises 19:28:23 0° 174° (S) 3,675 6.7 -13.2°
Reaches altitude 10° 19:30:56 10° 171° (S) 2,722 6.0 -13.5°
Maximum altitude 19:37:01 60° 93° (E) 1,103 4.0 -14.3°
Drops below altitude 10° 19:43:05 10° 16° (NNE) 2,704 6.6 -15.0°
Sets 19:45:36 0° 13° (NNE) 3,650 7.3 -15.4°
